Temp
3 3 3 4 3 2 2 2 2 3 3 3 3 2 3 4 6 7 8 8 8 8 8 7 7 6 6 6 11 13 13 13 13 13 13 13 12 12 11 11 13 12 13 15 16 16 17
3 2 2 2 2 2 2 2 2 2 2 2 2 2 3 4 5 7 8 8 8 8 8 7 7 6 4 3 13 12 12 13 13 13 13 13 13 13 13 12 12 15 14 15 16 16 16
2 2 2 2 2 2 2 2 2 2 2 2 2 2 2 3 6 7 8 8 8 8 8 8 8 7 3 9 11 13 13 13 13 12 12 13 13 13 14 13 15 15 13 14 14 16 15
2 2 2 2 2 2 1 1 1 2 2 2 2 2 3 4 6 7 8 8 9 9 9 9 8 6 5 12 12 12 12 13 13 13 13 13 13 13 13 14 14 14 14 13 15 16 16
2 1 2 1 1 1 1 1 1 1 1 1 2 2 3 4 6 7 7 8 9 8 8 8 7 6 7 10 12 12 12 12 12 13 13 13 13 13 13 12 11 12 11 12 14 16 16
1 1 1 1 1 1 1 1 1 1 1 1 2 2 2 5 5 6 6 8 8 7 7 6 5 4 9 11 11 12 12 12 12 12 12 13 12 10 9 9 10 10 11 12 13 16 15
1 1 1 1 1 1 1 1 1 1 1 1 1 1 2 4 5 5 6 8 6 6 6 6 7 7 9 10 11 11 11 11 12 12 10 11 9 8 9 10 12 12 12 11 13 16 14
1 1 1 1 1 1 1 1 1 1 1 1 1 1 1 4 4 4 4 4 2 1 2 5 7 7 7 8 7 11 11 11 10 9 9 9 8 9 10 10 11 11 11 12 14 16 15
0 1 1 1 1 1 1 1 1 0 1 1 1 1 1 3 4 4 4 3 3 4 3 5 6 7 7 6 6 8 11 11 10 8 8 8 10 11 10 10 10 11 11 12 13 14 14
0 0 0 0 0 0 0 0 0 0 0 0 0 0 0 2 3 4 3 3 4 4 3 7 8 9 8 8 7 11 11 11 10 9 8 8 9 10 9 9 10 10 13 13 13 13 10
-0 -0 -0 -0 -0 -0 -0 0 0 0 0 0 0 0 0 0 0 2 2 3 4 4 5 11 11 11 10 10 12 11 11 11 9 9 8 8 9 8 8 10 11 11 12 12 12 12 12
-1 -1 -1 -1 -1 -0 -0 -0 -0 -0 -0 -0 0 0 0 1 1 1 1 4 4 4 5 10 12 11 10 11 12 11 11 11 12 10 9 9 10 10 9 11 12 12 11 12 12 11 9
-1 -1 -1 -1 -1 -1 -1 -1 -1 -0 -0 -0 -0 -0 0 0 1 1 1 3 3 3 9 10 10 10 11 11 11 11 10 9 8 8 7 9 9 9 10 10 11 10 9 9 10 9 10
-2 -2 -2 -2 -2 -1 -1 -1 -1 -1 -1 -1 -1 -0 1 1 1 0 1 2 2 6 7 9 8 9 10 11 10 10 8 8 8 9 8 8 8 9 10 10 10 10 9 9 10 10 11
-2 -2 -2 -2 -2 -1 -1 -1 -1 -1 -1 -1 -1 -0 1 1 1 -0 0 0 3 5 7 6 7 9 9 10 9 10 8 8 9 8 8 8 9 11 10 11 10 9 8 9 9 9 9
-2 -3 -3 -2 -2 -2 -2 -2 -1 -1 -1 -1 -1 -0 1 0 0 -0 0 1 1 5 5 5 5 7 6 7 8 8 9 10 9 9 10 10 9 11 11 10 9 8 9 8 9 10 10
-3 -3 -3 -3 -2 -2 -2 -2 -2 -2 -2 -2 -2 -1 0 1 0 -0 -1 -0 2 4 4 5 5 6 7 6 8 9 10 9 9 10 9 10 10 9 12 10 9 8 8 7 9 10 10
-3 -3 -3 -2 -2 -2 -2 -2 -2 -2 -2 -2 -2 -5 -0 -0 -1 -1 -2 1 3 3 4 4 5 5 6 6 7 9 9 10 11 11 9 9 8 7 9 11 11 10 9 8 9 9 10
-3 -3 -3 -3 -2 -2 -2 -2 -2 -2 -2 -3 -3 -2 -0 -0 -5 -1 -0 1 2 2 2 4 4 6 6 5 4 8 9 10 10 10 9 9 8 7 9 10 11 10 9 9 9 9 10
-3 -3 -3 -3 -3 -3 -2 -2 -2 -2 -2 -3 -3 -5 -1 -1 -1 -1 -2 0 1 1 2 3 4 4 4 5 7 6 8 10 10 10 9 9 7 7 7 8 8 8 8 10 9 9 9
-3 -3 -3 -3 -3 -2 -2 -2 -2 -2 -3 -3 -3 -3 -3 -7 -2 -1 -0 0 0 1 3 2 2 3 2 3 5 5 7 8 8 8 7 7 7 7 7 7 8 9 8 9 8 8 9
-3 -3 -3 -3 -2 -2 -2 -2 -2 -2 -3 -3 -3 -3 -2 -2 -1 -1 -0 0 1 0 2 2 2 2 3 2 4 4 7 7 7 7 7 6 6 6 6 8 8 8 10 10 10 9 9
-3 -3 -3 -3 -2 -2 -2 -2 -2 -2 -3 -3 -3 -3 -3 -2 -2 -2 -0 1 0 1 2 3 3 1 1 2 4 4 5 5 6 7 6 6 5 5 6 6 6 7 9 10 10 9 9
-3 -3 -3 -3 -3 -2 -2 -2 -2 -2 -3 -3 -3 -3 -3 -4 -2 -1 0 1 1 1 1 2 3 1 3 4 3 5 5 5 5 6 6 5 5 4 4 5 5 9 11 11 10 10 10
-3 -3 -3 -3 -3 -3 -3 -2 -2 -2 -3 -3 -3 -3 -3 -4 -2 -1 -1 0 0 0 0 2 2 1 1 1 2 4 3 5 5 5 5 5 4 4 4 4 7 8 10 10 9 9 10
-3 -3 -3 -3 -3 -3 -3 -2 -3 -3 -3 -3 -3 -3 -3 -3 -3 -1 -1 -1 -1 -1 -1 1 1 2 1 0 1 3 3 5 6 6 6 4 4 4 3 5 4 8 10 11 10 8 8
-3 -3 -3 -3 -3 -3 -2 -2 -3 -3 -3 -3 -3 -3 -4 -3 -2 -1 -2 -2 -1 -2 -2 0 -0 0 0 0 2 2 4 5 5 6 5 3 2 4 4 3 4 7 7 9 7 7 7
-3 -3 -3 -3 -3 -3 -3 -3 -2 -2 -3 -3 -3 -3 -3 -3 -2 -2 -1 -1 -2 -2 -2 -0 -1 -1 -0 0 1 2 1 4 4 5 5 4 3 2 3 4 4 5 7 8 6 5 5
-3 -4 -3 -3 -3 -3 -3 -2 -2 -2 -2 -3 -3 -3 -3 -4 -3 -2 -2 -1 -1 -1 -1 0 0 -1 -1 1 1 1 1 -1 3 3 4 2 4 4 4 4 3 3 3 5 5 5 4
Height
1518 1518 1517 1515 1516 1514 1514 1513 1511 1510 1508 1507 1505 1503 1499 1496 1493 1490 1487 1483 1480 1478 1474 1472 1470 1467 1464 1463 1454 1453 1452 1453 1455 1455 1456 1458 1458 1459 1458 1456 1455 1453 1449 1448 1447 1449 1449
1516 1515 1515 1514 1514 1514 1513 1513 1510 1507 1505 1505 1504 1501 1498 1493 1490 1486 1482 1480 1476 1474 1470 1469 1468 1466 1466 1463 1449 1448 1448 1451 1453 1453 1454 1456 1454 1456 1455 1454 1453 1445 1444 1442 1442 1442 1445
1512 1514 1514 1513 1513 1511 1511 1510 1510 1508 1504 1502 1502 1499 1495 1491 1486 1482 1479 1476 1473 1470 1466 1465 1464 1462 1460 1449 1446 1445 1446 1447 1450 1450 1450 1454 1454 1457 1455 1452 1447 1443 1443 1439 1438 1437 1438
1510 1511 1512 1513 1511 1512 1508 1508 1507 1506 1503 1501 1499 1496 1492 1488 1484 1479 1475 1471 1469 1466 1462 1461 1460 1458 1450 1445 1444 1444 1443 1444 1447 1447 1448 1451 1453 1454 1454 1448 1445 1443 1439 1445 1433 1434 1433
1508 1509 1509 1510 1510 1509 1506 1506 1505 1504 1501 1498 1496 1494 1489 1486 1481 1476 1472 1468 1465 1461 1459 1457 1457 1457 1445 1442 1442 1442 1442 1444 1444 1444 1446 1448 1451 1451 1451 1450 1452 1445 1449 1442 1437 1428 1431
1506 1506 1505 1505 1507 1507 1504 1503 1502 1502 1499 1496 1494 1491 1486 1483 1479 1474 1470 1466 1462 1460 1458 1455 1455 1459 1443 1441 1440 1441 1442 1443 1443 1442 1443 1446 1447 1449 1450 1453 1453 1451 1445 1441 1437 1429 1428
1504 1503 1503 1503 1504 1503 1502 1500 1499 1498 1495 1494 1492 1489 1485 1482 1478 1474 1470 1465 1465 1462 1458 1456 1452 1448 1440 1440 1439 1439 1439 1440 1441 1440 1443 1443 1449 1449 1446 1445 1444 1442 1441 1441 1434 1427 1431
1501 1501 1501 1502 1503 1501 1500 1500 1499 1495 1493 1492 1490 1486 1483 1480 1476 1475 1474 1472 1478 1479 1456 1447 1439 1436 1433 1440 1437 1434 1438 1441 1441 1444 1443 1445 1446 1442 1441 1442 1443 1442 1440 1434 1427 1424 1425
1496 1497 1499 1499 1500 1499 1499 1499 1496 1493 1492 1491 1487 1484 1481 1478 1475 1477 1475 1476 1475 1474 1467 1435 1431 1427 1425 1430 1433 1426 1433 1435 1438 1443 1443 1445 1439 1437 1438 1438 1440 1439 1439 1434 1431 1427 1424
1493 1493 1494 1494 1496 1496 1497 1497 1493 1491 1491 1490 1486 1484 1479 1477 1477 1476 1476 1475 1474 1471 1468 1438 1429 1424 1426 1426 1429 1423 1428 1432 1437 1440 1442 1443 1436 1436 1437 1437 1435 1437 1431 1429 1427 1431 1438
1488 1490 1490 1491 1493 1493 1494 1493 1491 1489 1488 1487 1486 1483 1482 1479 1479 1477 1477 1475 1473 1473 1471 1428 1426 1425 1424 1426 1424 1424 1426 1431 1434 1436 1442 1438 1436 1437 1437 1433 1430 1430 1428 1429 1426 1428 1428
1486 1487 1488 1488 1489 1489 1490 1490 1489 1489 1485 1485 1485 1482 1481 1481 1479 1477 1474 1474 1473 1477 1466 1432 1424 1427 1427 1424 1423 1424 1427 1430 1432 1435 1436 1434 1431 1431 1429 1426 1426 1429 1430 1428 1426 1428 1434
1483 1483 1485 1486 1485 1486 1486 1486 1487 1486 1484 1482 1482 1481 1480 1479 1478 1476 1474 1475 1480 1478 1442 1436 1433 1431 1427 1423 1423 1423 1426 1430 1435 1441 1441 1431 1426 1424 1425 1427 1426 1430 1438 1437 1436 1435 1423
1480 1481 1483 1483 1484 1485 1484 1484 1484 1484 1482 1481 1480 1479 1478 1477 1476 1475 1475 1478 1482 1454 1448 1440 1437 1430 1425 1420 1420 1420 1426 1431 1430 1431 1436 1434 1431 1422 1418 1421 1424 1424 1434 1433 1427 1422 1419
1477 1478 1480 1481 1482 1481 1483 1483 1482 1481 1480 1480 1478 1477 1474 1474 1472 1474 1477 1481 1463 1457 1451 1449 1438 1431 1428 1423 1424 1420 1424 1425 1423 1426 1434 1431 1423 1413 1414 1414 1421 1427 1429 1431 1428 1424 1426
1474 1475 1476 1478 1479 1479 1481 1480 1480 1479 1478 1478 1477 1475 1472 1472 1472 1475 1478 1472 1466 1458 1457 1453 1450 1442 1440 1435 1429 1427 1421 1416 1419 1420 1421 1421 1425 1412 1410 1416 1422 1427 1425 1429 1427 1422 1424
1472 1473 1472 1474 1477 1477 1477 1477 1478 1478 1477 1477 1477 1474 1472 1472 1474 1477 1476 1472 1465 1461 1460 1456 1452 1448 1439 1442 1434 1427 1418 1419 1418 1418 1419 1420 1420 1419 1412 1416 1416 1426 1422 1426 1422 1420 1416
1469 1469 1469 1471 1474 1475 1474 1475 1475 1476 1476 1476 1476 1477 1473 1474 1477 1474 1474 1469 1467 1463 1462 1459 1453 1450 1447 1445 1438 1427 1425 1417 1416 1416 1421 1422 1423 1426 1416 1404 1404 1409 1417 1420 1419 1419 1417
1464 1466 1467 1469 1470 1472 1472 1472 1473 1475 1475 1476 1476 1475 1472 1473 1480 1471 1470 1467 1467 1464 1462 1458 1453 1448 1444 1444 1451 1430 1424 1415 1416 1417 1419 1419 1424 1428 1414 1407 1406 1412 1414 1418 1418 1417 1413
1460 1462 1464 1466 1467 1468 1469 1470 1471 1472 1473 1475 1477 1476 1471 1471 1470 1470 1472 1466 1465 1460 1457 1455 1452 1449 1447 1443 1440 1438 1428 1419 1419 1417 1417 1417 1424 1428 1433 1425 1424 1421 1417 1411 1413 1415 1413
1456 1458 1461 1462 1464 1465 1466 1467 1468 1470 1471 1473 1474 1473 1473 1478 1470 1469 1468 1466 1461 1458 1454 1453 1450 1448 1449 1444 1437 1441 1426 1423 1421 1419 1419 1422 1427 1428 1426 1423 1421 1418 1416 1413 1415 1413 1413
1452 1455 1457 1459 1460 1461 1463 1464 1466 1468 1469 1470 1471 1471 1472 1471 1469 1468 1466 1463 1460 1462 1457 1450 1448 1447 1446 1444 1439 1438 1427 1424 1421 1421 1422 1424 1431 1431 1429 1419 1419 1415 1408 1404 1406 1409 1411
1449 1451 1453 1455 1456 1458 1459 1461 1463 1465 1466 1467 1468 1468 1470 1469 1469 1470 1466 1462 1461 1460 1451 1448 1447 1448 1443 1437 1435 1432 1428 1425 1426 1423 1424 1426 1430 1434 1429 1424 1422 1416 1403 1399 1396 1401 1401
1445 1446 1448 1450 1452 1453 1455 1457 1459 1461 1462 1465 1466 1468 1469 1469 1467 1466 1463 1461 1460 1458 1454 1447 1445 1442 1435 1432 1432 1427 1424 1422 1422 1423 1424 1428 1431 1437 1437 1429 1432 1403 1397 1394 1392 1391 1394
1440 1442 1443 1445 1447 1448 1450 1452 1454 1456 1459 1460 1463 1465 1466 1466 1464 1463 1461 1460 1459 1455 1451 1445 1441 1440 1434 1434 1432 1427 1429 1424 1420 1419 1421 1421 1427 1435 1438 1436 1421 1405 1396 1395 1399 1396 1394
1434 1436 1438 1440 1442 1444 1446 1448 1450 1452 1455 1456 1459 1462 1463 1463 1460 1459 1458 1458 1458 1453 1448 1443 1440 1433 1430 1425 1428 1425 1428 1421 1419 1415 1416 1421 1424 1431 1438 1431 1431 1404 1398 1393 1394 1397 1394
1428 1430 1432 1434 1436 1438 1440 1442 1445 1447 1450 1452 1454 1457 1460 1459 1455 1456 1456 1456 1454 1454 1453 1447 1442 1436 1430 1430 1427 1430 1425 1420 1421 1417 1418 1426 1431 1429 1430 1433 1421 1402 1401 1397 1404 1404 1395
1423 1424 1426 1428 1430 1432 1434 1437 1439 1442 1445 1447 1448 1451 1455 1455 1452 1453 1452 1452 1451 1451 1452 1447 1444 1441 1436 1435 1431 1427 1432 1422 1420 1416 1418 1420 1425 1430 1428 1426 1426 1407 1400 1399 1401 1400 1401
1416 1418 1420 1422 1424 1426 1428 1430 1432 1435 1439 1442 1443 1446 1450 1453 1449 1447 1446 1445 1446 1447 1450 1448 1448 1447 1445 1437 1435 1433 1433 1433 1423 1424 1416 1427 1419 1418 1416 1416 1416 1413 1409 1401 1402 1399 1407
Wind_Speed
8 8 7 7 7 7 9 11 12 13 16 17 16 16 20 22 23 21 20 20 21 21 21 20 22 22 21 9 15 12 17 13 7 8 6 6 6 6 4 4 14 8 4 17 21 19 24
7 5 6 6 7 8 10 12 13 14 16 16 17 18 21 24 24 22 22 22 20 19 20 19 21 19 15 7 3 5 10 18 9 7 7 8 6 6 10 7 7 6 13 21 22 25 22
6 6 7 8 9 10 13 13 14 15 16 17 19 21 23 25 22 21 22 22 22 19 19 19 19 16 16 28 9 10 11 12 12 9 9 6 3 5 4 5 11 9 7 8 9 5 9
5 5 7 10 11 12 9 9 12 16 18 18 20 21 24 26 24 21 21 21 21 20 21 19 16 12 13 15 10 2 3 13 14 12 12 10 11 11 8 10 6 4 3 6 4 8 9
8 10 11 11 12 11 10 10 12 14 16 18 20 23 26 26 21 20 19 19 18 18 16 10 9 9 13 9 8 2 2 2 4 11 13 10 10 8 5 3 4 3 5 4 5 8 6
12 11 10 9 10 11 13 14 14 18 18 18 19 22 26 24 19 19 18 19 11 8 9 5 3 6 12 2 6 4 2 4 4 2 6 8 6 2 0 3 10 5 4 5 5 1 4
11 8 10 8 9 10 10 10 10 12 15 16 20 24 25 23 18 15 19 18 10 4 18 12 15 19 22 7 11 9 3 1 5 2 4 1 2 8 8 6 4 7 5 7 4 5 4
10 9 10 10 9 11 11 10 13 12 14 16 19 22 24 21 15 8 10 10 12 14 18 27 36 37 40 25 14 24 16 4 5 4 1 2 6 8 5 6 7 8 11 12 11 11 4
12 10 9 10 12 11 11 13 12 13 15 17 21 21 21 21 10 4 6 12 11 15 7 21 13 14 12 21 17 18 17 9 4 5 5 5 4 2 6 8 9 11 10 9 10 5 8
12 12 11 12 14 12 13 13 12 13 15 18 19 19 19 19 4 12 2 8 10 13 5 7 5 5 7 5 7 13 13 11 3 8 4 5 4 4 6 5 7 12 7 10 8 6 4
10 12 12 11 12 12 11 12 13 13 14 15 16 16 16 16 17 13 14 12 8 4 5 1 1 3 11 7 3 2 16 14 7 5 5 6 4 4 5 6 7 7 5 6 3 3 3
11 10 11 12 14 14 14 12 12 15 16 16 16 14 14 14 15 10 14 10 3 2 6 6 4 4 4 4 1 5 6 7 6 3 4 6 4 4 7 5 6 5 9 10 5 3 6
12 11 10 10 9 9 11 12 13 14 14 13 15 14 14 16 17 15 11 7 3 3 6 7 4 6 7 3 5 5 6 7 5 3 5 4 11 5 4 3 6 9 4 3 5 4 6
6 9 7 7 7 7 8 8 10 11 13 12 12 14 15 17 19 11 2 2 3 2 6 7 7 12 7 6 6 6 6 4 6 2 1 3 5 9 7 12 5 13 6 3 4 3 2
8 9 8 7 8 7 10 9 10 13 14 13 13 15 17 15 4 4 4 3 5 4 4 9 11 4 6 6 3 4 8 5 6 11 7 3 4 2 6 5 7 4 11 2 1 4 2
6 4 7 7 10 11 11 10 12 11 11 11 13 15 13 10 7 7 3 5 4 4 8 5 3 4 4 11 7 7 7 2 4 7 3 2 4 2 3 6 6 4 3 4 2 3 3
8 10 8 9 8 9 9 10 9 9 9 9 9 6 3 6 8 6 4 4 4 12 14 4 4 5 5 9 9 3 4 3 1 3 8 3 2 6 4 5 7 3 3 2 2 2 2
10 12 7 7 9 10 8 7 7 6 8 8 2 2 4 5 1 4 5 3 2 7 7 5 5 7 9 4 7 2 4 4 4 4 4 1 2 3 7 7 11 10 7 4 2 4 2
13 13 9 9 10 9 9 9 7 7 8 5 2 6 7 6 2 2 5 6 11 13 16 5 5 6 5 2 5 9 6 5 4 1 4 3 1 3 7 4 5 3 10 9 6 1 4
17 14 13 14 11 9 9 8 7 8 7 5 2 2 2 4 3 3 4 7 6 10 11 8 9 11 12 6 3 9 5 4 14 2 6 3 2 2 2 3 2 6 11 7 8 2 2
13 13 11 7 9 9 8 7 9 9 7 7 6 3 3 2 1 2 4 5 7 4 7 8 5 3 4 4 3 10 4 2 3 3 3 3 2 1 6 7 8 11 12 11 8 6 4
15 12 12 10 9 10 10 9 8 7 8 13 5 3 2 3 6 3 5 2 8 6 6 6 5 13 5 5 4 10 2 2 2 3 2 2 1 2 4 4 8 10 11 11 13 11 11
12 13 13 13 13 13 12 11 10 10 11 9 8 6 2 2 1 2 2 5 9 13 8 11 10 10 8 11 13 14 10 6 4 2 1 2 3 2 4 6 10 7 0 6 5 11 6
15 17 16 15 15 15 15 15 14 13 15 15 8 5 2 2 3 4 7 10 11 12 12 20 14 7 6 15 20 16 10 9 4 5 3 4 4 3 3 4 3 5 12 8 5 5 8
18 18 17 16 16 16 16 16 16 16 16 18 16 13 5 3 8 6 9 5 14 16 9 13 9 14 23 13 3 4 3 3 5 8 9 7 4 2 2 3 6 11 3 3 8 8 2
16 17 19 18 18 17 15 15 15 14 15 19 18 16 11 2 6 18 7 8 3 4 5 5 14 14 4 2 2 3 3 3 2 4 2 5 3 3 1 2 3 4 8 4 6 6 3
20 20 21 22 21 20 19 19 18 17 16 19 19 17 15 6 10 14 5 5 3 2 3 4 13 8 3 1 1 2 1 2 2 2 3 3 2 8 6 3 6 5 12 12 3 5 13
22 21 21 20 18 19 20 20 20 19 19 21 23 21 19 8 15 14 9 9 5 4 1 7 6 5 4 3 1 0 1 3 1 3 2 5 4 3 3 4 7 15 11 3 4 17 15
22 24 23 21 21 21 22 22 23 23 23 23 25 23 22 17 11 11 14 21 28 24 14 4 3 2 4 3 2 2 2 3 0 2 1 1 1 2 5 2 5 10 10 13 11 20 10
Wind_Direction
276 288 288 300 310 317 322 321 324 326 328 327 320 309 312 319 321 317 312 311 312 313 313 315 313 316 323 299 268 248 230 240 298 252 251 271 213 202 201 225 234 244 269 263 264 268 265
267 281 298 307 306 311 317 319 320 325 329 325 323 322 314 317 320 319 314 314 310 310 307 308 303 304 304 279 247 254 234 231 238 228 255 278 250 273 267 239 221 253 243 251 258 262 266
258 270 283 293 291 298 305 304 315 321 325 326 321 324 323 322 323 318 316 312 309 309 297 297 299 283 272 271 271 247 249 226 221 228 245 239 241 274 290 280 238 246 255 266 250 227 244
276 256 277 293 304 309 311 310 310 314 319 323 324 322 322 326 330 321 318 316 314 306 291 291 285 261 259 287 257 239 242 248 234 231 240 249 268 269 240 271 294 267 238 250 235 213 249
256 265 269 270 280 289 301 305 309 314 319 321 324 328 329 331 332 323 324 322 321 303 308 294 253 245 266 268 224 130 54 290 249 225 238 255 258 230 266 239 317 279 248 263 286 216 222
263 275 283 286 285 294 287 291 297 302 303 312 321 325 328 336 334 328 329 329 319 305 330 328 271 272 259 225 188 184 305 292 251 232 230 241 203 200 342 144 239 237 258 245 233 311 12
264 276 287 292 280 295 305 312 320 325 327 303 316 322 328 341 335 338 340 354 6 323 311 268 265 255 270 287 255 231 313 310 223 179 174 161 161 221 221 215 250 257 253 259 256 265 296
270 273 272 279 287 300 309 309 313 322 328 326 321 320 321 336 335 346 12 65 25 318 297 289 273 260 257 254 284 253 258 221 172 193 145 17 240 243 238 239 261 274 265 266 274 274 258
255 256 265 280 286 279 286 290 305 315 324 328 328 325 326 338 339 345 17 27 350 335 272 298 259 252 256 217 232 259 237 195 166 169 198 188 220 335 229 230 241 252 254 253 260 298 268
259 264 272 274 280 285 288 288 301 311 317 326 335 334 333 349 5 348 355 321 324 335 307 278 265 259 168 180 229 220 186 169 197 197 195 241 249 247 259 246 226 249 235 266 270 278 254
258 267 266 270 274 287 294 290 297 305 314 324 331 337 334 348 332 347 317 328 327 341 321 225 211 198 175 182 152 220 204 199 185 184 140 244 194 209 217 231 232 261 359 289 279 270 220
258 273 279 278 276 278 284 297 302 305 309 309 324 327 333 331 331 349 311 329 340 60 255 313 154 194 161 238 275 121 158 196 215 190 247 241 220 213 209 217 227 268 299 279 250 215 245
267 273 283 289 290 297 282 287 298 311 323 315 315 316 322 320 323 327 312 335 71 188 334 335 4 347 277 213 205 175 166 185 176 164 240 279 238 214 165 188 186 218 266 242 224 228 234
267 262 264 287 290 301 309 299 303 317 329 322 310 311 314 313 317 307 307 65 187 231 279 355 339 300 210 195 235 189 137 193 234 155 151 214 319 164 190 204 184 202 201 223 220 231 182
253 275 271 265 290 284 295 299 311 314 315 313 314 317 316 347 260 223 137 194 216 212 327 340 323 343 346 13 8 171 194 197 208 174 189 206 255 143 174 145 135 175 210 357 317 316 25
276 268 294 248 277 277 277 301 313 319 321 309 321 332 333 334 177 152 177 240 253 320 5 338 312 17 324 339 355 348 177 212 153 193 194 230 295 278 196 119 166 167 137 179 180 224 215
289 307 269 269 278 303 285 281 297 311 317 317 335 329 323 347 173 190 228 239 315 323 348 316 342 313 340 345 319 287 346 354 197 186 143 207 170 288 127 188 173 204 180 186 227 228 229
277 313 268 250 274 281 285 285 291 293 315 305 342 347 227 350 315 196 230 258 245 290 310 289 284 272 255 334 295 359 301 169 252 182 155 156 84 277 245 238 184 186 196 176 211 173 191
271 294 268 260 274 276 271 276 282 287 296 302 291 273 290 267 169 261 305 283 283 265 269 265 289 308 11 17 315 286 311 347 27 168 166 173 124 319 317 36 43 151 181 195 214 52 231
266 270 266 258 265 272 268 275 273 269 277 255 245 320 304 180 240 162 271 268 255 292 296 298 286 275 286 271 232 292 313 3 323 335 76 75 85 116 241 292 245 314 341 274 212 196 172
247 250 249 241 251 258 260 263 261 261 253 226 202 221 250 278 225 298 265 303 292 297 283 241 289 323 348 269 294 271 276 324 17 58 51 84 124 353 280 278 278 267 254 256 262 247 232
248 232 236 249 259 261 264 263 258 246 232 217 204 191 203 293 309 12 4 286 307 347 321 296 286 329 303 272 264 285 255 314 273 337 82 23 140 42 280 316 330 291 250 243 219 247 274
224 235 246 249 254 259 262 257 252 244 233 224 227 190 242 249 17 353 259 280 298 315 295 322 315 310 287 263 276 281 289 287 272 325 103 108 116 70 279 341 326 297 359 294 211 194 174
241 249 252 255 259 261 258 255 252 242 236 236 217 208 174 268 203 217 263 280 296 308 293 300 310 256 253 305 293 284 264 277 254 258 215 149 150 146 252 346 269 259 318 36 317 208 188
245 248 253 256 258 259 254 249 247 239 232 234 234 217 192 252 232 259 254 292 307 293 274 280 336 313 287 265 244 225 321 334 264 222 209 201 141 182 183 196 291 302 348 63 14 286 213
240 249 253 254 255 255 252 249 241 237 227 235 235 234 230 205 232 241 262 278 294 307 321 280 321 338 275 222 197 163 175 206 263 317 225 120 105 139 146 220 253 243 348 321 44 273 343
248 258 258 256 255 254 252 246 240 236 226 228 232 232 228 262 252 261 218 247 243 293 279 302 327 340 353 328 55 141 221 271 234 240 166 119 148 210 215 240 280 295 325 322 104 298 337
255 254 258 251 250 250 248 245 242 237 230 230 234 231 221 236 261 258 263 232 225 235 224 324 340 7 305 7 320 202 185 247 277 239 190 180 168 193 168 211 254 353 319 228 131 52 36
248 255 257 251 254 252 250 245 242 240 234 230 227 232 227 233 255 264 259 253 251 259 266 294 299 214 292 308 12 310 313 349 307 264 289 27 229 240 184 195 51 26 48 67 109 103 80